Regional Weather Roundup
Issued by NWS

Home | Current Version | Previous Version | Text Only | Print | Product List | Glossary On
Versions: 1 2 3 4 5 6 7 8 9 10 11 12 13 14 15 16 17 18 19 20 21 22 23 24 25 26 27 28 29 30 31 32 33 34 35 36 37 38 39 40 41 42 43 44 45 46 47 48 49 50
837
ASUS43 KLMK 162010
RWRKY
KENTUCKY REGIONAL WEATHER ROUNDUP
NATIONAL WEATHER SERVICE LOUISVILLE KY
300 PM EST MON JAN 16 2017

NOTE "FAIR" INDICATES FEW OR NO CLOUDS BELOW 12,000 FEET
WITH NO SIGNIFICANT WEATHER AND/OR OBSTRUCTIONS TO VISIBILITY.

KYZ001>023-026-027-061>063-070>075-162100-
WESTERN AND SOUTH CENTRAL KENTUCKY

CITY           SKY/WX    TMP DP  RH WIND       PRES   REMARKS
PADUCAH        CLOUDY    62  55  77 SE7       30.03F
HENDERSON      CLOUDY    54  50  87 SE3       30.07F
OWENSBORO      LGT RAIN  55  53  93 SE5       30.10F FOG
HOPKINSVILLE   CLOUDY    66  58  75 SE6       30.07F
BOWLING GREEN  CLOUDY    67  54  63 S6        30.12F
GLASGOW        CLOUDY    64  53  68 SE3       30.13F
$$

KYZ024-025-028>034-038-045-046-053-162100-
NORTH CENTRAL KENTUCKY

CITY           SKY/WX    TMP DP  RH WIND       PRES   REMARKS
LOUISVILLE/SDF CLOUDY    55  50  83 SE3       30.14F
LOUISVILLE/LOU CLOUDY    56  50  80 CALM      30.15F
FORT KNOX      CLOUDY    54  54 100 CALM      30.12F
$$

KYZ035>037-039>044-047>052-055>060-089>105-162100-
NORTHEAST KENTUCKY

CITY           SKY/WX    TMP DP  RH WIND       PRES   REMARKS
LEXINGTON      PTSUNNY   62  53  72 S9        30.16F
COVINGTON      CLOUDY    50  47  89 SE7       30.16F FOG
FRANKFORT      CLOUDY    59  51  75 SE3       30.15F
$$

KYZ054-064>069-076>088-106>120-162100-
SOUTHEAST KENTUCKY

CITY           SKY/WX    TMP DP  RH WIND       PRES   REMARKS
JACKSON        CLOUDY    64  51  62 SW7       30.20F
LONDON         SUNNY     65  49  56 S6        30.19F
SOMERSET       PTSUNNY   63  50  63 S6        30.19F
MIDDLESBORO    CLOUDY    64  53  68 S5        30.23F
MONTICELLO     CLOUDY    67  52  58 VRB6      30.19F
$$





USA.gov is the U.S. government's official web portal to all federal, state and local government web resources and services.